Flag Weather past 2 weeks in Laatzen, Lower Saxony, Germany

Now
40 °F

Partly sunny.


Feels Like: 35 °F
Forecast: 33 / 39 °F
Wind: 7 mph from East

Location: Hannover

Current Time: Nov 27, 2014 at 2:47:43 PM

Latest Report: Nov 27, 2014 at 2:00 PM


Visibility: 6 mi

Pressure: 29.90 "Hg

Humidity: 76%

Dew point: 33 °F

Location of LaatzenLocation

Historic Weather in Laatzen — Graph

°F

Laatzen temperature yesterday

Maximum temperature yesterday: 41 °F (at 12:00 AM)
Minimum temperature yesterday: 38 °F (at 11:00 PM)
Average temperature yesterday: 40 °F

Past Weeks' High & Low Weather Summary

 TemperatureHumidityPressure
High56 °F (Nov 23, 3:00 PM)100% (Nov 13, 1:00 AM)30.39 "Hg (Nov 13, 1:00 AM)
Low30 °F (Nov 21, 8:00 AM)60% (Nov 23, 3:00 PM)29.53 "Hg (Nov 16, 3:00 PM)
Average45 °F88%30.02 "Hg
* Reported Nov 12 1:00 PM — Nov 27 1:00 PM, Laatzen, Weather by CustomWeather, © 2014

Note: Actual official high and low records may vary slightly from our data, if they occured in-between our weather recording intervals... More about our weather records

Advertising

Laatzen weather history for previous 24 hours

 ConditionsComfort  
Time TempWeatherWind HumidityBarometerVisibility
1:00 PM
Nov 27
39 °FPartly sunny.7 mph76%29.92 "Hg6 mi
12:00 PM37 °FScattered clouds.6 mph81%29.92 "Hg5 mi
11:00 AM36 °FFog.6 mph83%29.93 "Hg4 mi
9:00 AM33 °FFog.5 mph90%29.95 "Hg3 mi
8:00 AM32 °FFog.6 mph91%29.95 "Hg2 mi
7:00 AM33 °FPassing clouds.5 mph90%29.95 "Hg5 mi
6:00 AM33 °FPassing clouds.5 mph91%29.96 "Hg6 mi
5:00 AM33 °FPassing clouds.5 mph89%29.96 "Hg6 mi
3:00 AM34 °FPassing clouds.5 mph87%29.98 "Hg6 mi
2:00 AM35 °FPassing clouds.6 mph85%30.00 "Hg6 mi
1:00 AM36 °FPassing clouds.6 mph83%30.02 "Hg6 mi
12:00 AM36 °FPassing clouds.6 mph81%30.03 "Hg6 mi
11:00 PM
Nov 26
38 °FOvercast.8 mph80%30.05 "Hg7 mi
9:00 PM40 °FOvercast.7 mph80%30.06 "Hg6 mi
8:00 PM40 °FPassing clouds.5 mph85%30.07 "Hg6 mi
7:00 PM40 °FPassing clouds.6 mph84%30.07 "Hg6 mi
6:00 PM40 °FPassing clouds.6 mph83%30.08 "Hg6 mi
5:00 PM39 °FPassing clouds.6 mph82%30.08 "Hg6 mi
3:00 PM40 °FPartly sunny.7 mph78%30.11 "Hg6 mi
2:00 PM40 °FPassing clouds.6 mph78%30.12 "Hg6 mi
Weather by CustomWeather, © 2014

See weather overviewHow to use our weather pages